Location: ???? ?????????
(31.1304°N, 31.7111°E)
Time: 11:44:17
(UTC+00:00)

Cosmos 1300 - Pass Details

Date: 29 October 2020
Orbit: 511 x 513 km, 82.5° (Epoch: 26 November)

Event Time Altitude Azimuth Distance (km) Brightness Sun altitude
Rises 15:25:18 0° 192° (SSW) 2,611 6.6 -4.6°
Reaches altitude 10° 15:27:26 10° 195° (SSW) 1,729 5.8 -5.1°
Maximum altitude 15:31:11 62° 277° (W) 581 3.3 -5.9°
Drops below altitude 10° 15:34:58 10° 359° (N) 1,741 5.3 -6.7°
Sets 15:37:08 0° 2° (N) 2,631 6.1 -7.1°
